Location: Unspecified
(0.0000°N, 0.0000°E)
Time: 19:03:06
(UTC+00:00)

Tiros 1 despin weight - Pass Details

Date: 20 November 2019
Orbit: 594 x 642 km, 48.2° (Epoch: 08 December)

Event Time Altitude Azimuth Distance (km) Brightness Sun altitude
Rises 21:24:19 0° 320° (NW) 2,888 - -50.1°
Reaches altitude 10° 21:26:36 10° 320° (NW) 1,992 - -50.6°
Maximum altitude 21:31:12 86° 230° (SW) 637 - -51.6°
Drops below altitude 10° 21:35:52 10° 142° (SE) 2,022 - -52.6°
Sets 21:38:13 0° 142° (SE) 2,936 - -53.1°
